| time (UTC) | temp F | wind direction | speed MPH | gust MPH | rain 1hr in | rain 24hr in | rain mn in | humidity % | barometer mb |
| 20260503004603 | 65 | 280 | 0.0 | 0.0 | 0.00 | 0.37 | 0.37 | 95 | 1018.2 |
| 20260503003117 | 65 | 280 | 0.0 | 0.0 | 0.00 | 0.37 | 0.37 | 95 | 1018.0 |
| 20260503001606 | 65 | 280 | 0.0 | 0.0 | 0.00 | 0.37 | 0.37 | 95 | 1017.8 |
| 20260503000100 | 66 | 280 | 0.0 | 0.0 | 0.00 | 0.37 | 0.37 | 95 | 1017.8 |
| 20260503000008 | 66 | 280 | 0.0 | 0.0 | 0.00 | 0.37 | 0.37 | 95 | 1017.7 |
| 20260502234602 | 66 | 280 | 0.0 | 0.0 | 0.00 | 0.37 | 0.37 | 95 | 1017.6 |
| 20260502233100 | 66 | 280 | 0.0 | 1.0 | 0.00 | 0.37 | 0.37 | 95 | 1017.1 |
| 20260502231601 | 66 | 280 | 0.0 | 2.0 | 0.00 | 0.37 | 0.37 | 95 | 1017.0 |
| 20260502230100 | 66 | 280 | 0.0 | 2.0 | 0.00 | 0.37 | 0.37 | 95 | 1016.8 |
| 20260502230003 | 66 | 280 | 0.0 | 2.0 | 0.00 | 0.37 | 0.37 | 95 | 1016.8 |
| 20260502224600 | 67 | 280 | 0.0 | 2.0 | 0.00 | 0.37 | 0.37 | 95 | 1016.5 |
| 20260502223100 | 67 | 281 | 1.0 | 3.0 | 0.00 | 0.37 | 0.37 | 94 | 1016.4 |
| 20260502221605 | 67 | 59 | 0.0 | 3.0 | 0.00 | 0.37 | 0.37 | 94 | 1016.2 |
| 20260502220144 | 67 | 136 | 0.0 | 2.0 | 0.00 | 0.37 | 0.37 | 94 | 1016.0 |
| 20260502220010 | 67 | 136 | 0.0 | 2.0 | 0.00 | 0.37 | 0.37 | 94 | 1016.1 |
| 20260502214603 | 67 | 115 | 1.0 | 3.0 | 0.00 | 0.37 | 0.37 | 94 | 1016.0 |
| 20260502213107 | 67 | 125 | 0.0 | 2.0 | 0.00 | 0.37 | 0.37 | 94 | 1015.6 |
| 20260502211600 | 68 | 125 | 0.0 | 1.0 | 0.00 | 0.37 | 0.37 | 94 | 1015.9 |
| 20260502210108 | 68 | 125 | 2.0 | 4.0 | 0.00 | 0.37 | 0.37 | 94 | 1015.5 |
| 20260502210002 | 68 | 174 | 2.0 | 4.0 | 0.00 | 0.37 | 0.37 | 94 | 1015.7 |
| 20260502204610 | 68 | 197 | 2.0 | 4.0 | 0.00 | 0.37 | 0.37 | 94 | 1016.0 |
| 20260502203117 | 68 | 231 | 3.0 | 5.0 | 0.00 | 0.37 | 0.37 | 94 | 1015.7 |
| 20260502201559 | 68 | 271 | 2.0 | 4.0 | 0.00 | 0.37 | 0.37 | 94 | 1015.6 |
| 20260502200100 | 69 | 226 | 1.0 | 3.0 | 0.00 | 0.37 | 0.37 | 93 | 1015.3 |
| 20260502200003 | 69 | 226 | 2.0 | 3.0 | 0.00 | 0.37 | 0.37 | 93 | 1015.4 |
| 20260502194603 | 69 | 276 | 0.0 | 2.0 | 0.00 | 0.37 | 0.37 | 93 | 1015.0 |
| 20260502193100 | 69 | 276 | 0.0 | 3.0 | 0.00 | 0.37 | 0.37 | 93 | 1015.0 |
| 20260502191618 | 69 | 274 | 1.0 | 2.0 | 0.00 | 0.37 | 0.37 | 93 | 1014.7 |
| 20260502190111 | 70 | 53 | 0.0 | 0.0 | 0.00 | 0.37 | 0.37 | 93 | 1014.3 |
| 20260502190004 | 70 | 53 | 0.0 | 0.0 | 0.00 | 0.37 | 0.37 | 93 | 1014.4 |
| 20260502184559 | 70 | 53 | 0.0 | 2.0 | 0.00 | 0.37 | 0.37 | 93 | 1014.1 |
| 20260502183103 | 70 | 53 | 0.0 | 2.0 | 0.00 | 0.37 | 0.37 | 93 | 1014.2 |
| 20260502181600 | 70 | 14 | 1.0 | 3.0 | 0.00 | 0.37 | 0.37 | 93 | 1014.0 |
| 20260502180115 | 70 | 12 | 0.0 | 1.0 | 0.00 | 0.37 | 0.37 | 92 | 1014.2 |
| 20260502163111 | 71 | 52 | 0.0 | 6.0 | 0.00 | 0.37 | 0.37 | 91 | 1013.1 |
| 20260502161601 | 71 | 98 | 1.0 | 8.0 | 0.00 | 0.37 | 0.37 | 90 | 1013.0 |
| 20260502151620 | 71 | 309 | 2.0 | 6.0 | 0.00 | 0.37 | 0.37 | 92 | 1012.5 |
| 20260502150105 | 70 | 296 | 1.0 | 5.0 | 0.00 | 0.37 | 0.37 | 92 | 1013.1 |
| 20260502130109 | 69 | 41 | 3.0 | 5.0 | 0.00 | 0.35 | 0.35 | 95 | 1015.4 |
| 20260502123105 | 69 | 30 | 3.0 | 6.0 | 0.00 | 0.35 | 0.35 | 96 | 1015.8 |
| 20260502121601 | 69 | 300 | 1.0 | 7.0 | 0.00 | 0.35 | 0.35 | 96 | 1016.1 |
| 20260502114604 | 69 | 271 | 1.0 | 3.0 | 0.01 | 0.35 | 0.35 | 96 | 1016.1 |
| 20260502113100 | 69 | 60 | 0.0 | 0.0 | 0.02 | 0.35 | 0.35 | 96 | 1016.0 |
| 20260502111600 | 69 | 60 | 0.0 | 0.0 | 0.03 | 0.35 | 0.35 | 96 | 1015.8 |
| 20260502110105 | 69 | 60 | 0.0 | 0.0 | 0.06 | 0.34 | 0.34 | 95 | 1016.3 |
| 20260502110006 | 69 | 60 | 0.0 | 0.0 | 0.06 | 0.34 | 0.34 | 96 | 1016.4 |
| 20260502104559 | 69 | 60 | 0.0 | 4.0 | 0.20 | 0.34 | 0.34 | 95 | 1016.5 |
| 20260502103102 | 69 | 103 | 2.0 | 5.0 | 0.31 | 0.33 | 0.33 | 95 | 1016.5 |
| 20260502101606 | 69 | 104 | 2.0 | 4.0 | 0.32 | 0.32 | 0.32 | 95 | 1017.0 |
| 20260502070002 | 70 | 255 | 0.0 | 0.0 | 0.00 | 0.00 | 0.00 | 93 | 1013.0 |
| 20260502064559 | 70 | 255 | 0.0 | 0.0 | 0.00 | 0.00 | 0.00 | 93 | 1013.3 |
| 20260502063059 | 70 | 255 | 0.0 | 0.0 | 0.00 | 0.00 | 0.00 | 93 | 1013.5 |
| 20260502061600 | 70 | 255 | 0.0 | 0.0 | 0.00 | 0.00 | 0.00 | 93 | 1013.3 |
| 20260502060104 | 70 | 255 | 0.0 | 0.0 | 0.00 | 0.00 | 0.00 | 93 | 1013.4 |
| 20260502060002 | 70 | 255 | 0.0 | 0.0 | 0.00 | 0.00 | 0.00 | 93 | 1013.4 |
| 20260502054600 | 70 | 255 | 0.0 | 0.0 | 0.00 | 0.00 | 0.00 | 93 | 1013.6 |
| 20260502053105 | 70 | 255 | 0.0 | 0.0 | 0.00 | 0.00 | 0.00 | 93 | 1013.8 |
| 20260502051603 | 70 | 255 | 0.0 | 0.0 | 0.00 | 0.00 | 0.00 | 93 | 1013.8 |
| 20260502050001 | 70 | 255 | 0.0 | 0.0 | 0.00 | 0.00 | 0.00 | 93 | 1013.8 |
| 20260502044558 | 70 | 255 | 0.0 | 1.0 | 0.00 | 0.00 | 0.00 | 93 | 1013.9 |
| 20260502043106 | 70 | 255 | 0.0 | 1.0 | 0.00 | 0.00 | 0.00 | 93 | 1013.8 |
| 20260502041558 | 70 | 255 | 0.0 | 2.0 | 0.00 | 0.00 | 0.00 | 93 | 1014.0 |
| 20260502040058 | 70 | 255 | 0.0 | 2.0 | 0.00 | 0.00 | 0.00 | 93 | 1014.1 |
| 20260502040002 | 70 | 255 | 0.0 | 2.0 | 0.00 | 0.00 | 0.00 | 93 | 1014.1 |
| 20260502034600 | 70 | 255 | 0.0 | 0.0 | 0.00 | 0.00 | 0.00 | 93 | 1014.2 |
| 20260502034502 | 70 | 255 | 0.0 | 0.0 | 0.00 | 0.00 | 0.00 | 93 | 1014.2 |
| 20260502033100 | 70 | 255 | 0.0 | 0.0 | 0.00 | 0.00 | 0.00 | 93 | 1014.2 |
| 20260502031601 | 70 | 255 | 0.0 | 0.0 | 0.00 | 0.00 | 0.00 | 93 | 1014.5 |
| 20260502030004 | 69 | 255 | 0.0 | 0.0 | 0.00 | 0.00 | 0.00 | 93 | 1014.7 |
| 20260502024559 | 69 | 255 | 0.0 | 0.0 | 0.00 | 0.00 | 0.00 | 93 | 1014.7 |
| 20260502023059 | 69 | 255 | 0.0 | 0.0 | 0.00 | 0.00 | 0.00 | 93 | 1014.7 |
| 20260502021602 | 69 | 255 | 0.0 | 0.0 | 0.00 | 0.00 | 0.00 | 93 | 1014.9 |
| 20260502020004 | 69 | 255 | 0.0 | 0.0 | 0.00 | 0.00 | 0.00 | 93 | 1014.9 |
| 20260502014603 | 69 | 255 | 0.0 | 0.0 | 0.00 | 0.00 | 0.00 | 93 | 1014.8 |
| 20260502013102 | 69 | 255 | 0.0 | 0.0 | 0.00 | 0.00 | 0.00 | 93 | 1014.8 |
| 20260502011559 | 69 | 255 | 0.0 | 0.0 | 0.00 | 0.00 | 0.00 | 93 | 1014.9 |
| 20260502010006 | 69 | 255 | 0.0 | 0.0 | 0.00 | 0.00 | 0.00 | 93 | 1015.1 |